Lid_Strength_Index
15 14 14 15 15 15 15 14 17 14 14 11 10 9 10 8 7 8 10 11 12 13 13 14 15 15 15 15 16 15 15 15 16 15 15 15 15 16 16 16 16 15 16 17
16 13 14 15 14 14 13 13 14 13 13 10 10 9 9 9 9 9 11 12 13 13 14 15 15 15 15 15 15 15 15 16 15 15 15 16 16 16 16 16 16 16 17 17
17 13 14 17 14 14 13 12 12 15 12 10 11 10 9 9 9 9 10 11 13 13 14 14 15 15 15 15 15 15 15 15 16 16 16 16 16 16 16 16 17 17 17 16
17 15 21 13 11 11 12 11 11 11 11 10 10 10 9 9 9 8 10 11 12 13 14 14 14 14 15 14 14 15 16 16 16 16 17 17 16 16 17 17 17 17 17 17
18 18 15 13 13 13 13 13 11 11 11 11 10 10 11 9 8 8 10 11 12 12 14 14 14 14 15 15 16 16 16 16 16 17 17 16 17 17 18 17 17 17 17 17
16 19 21 14 12 10 11 16 10 11 10 10 10 12 12 10 9 9 10 11 13 13 14 14 15 15 16 16 16 17 17 17 17 16 16 17 18 18 17 17 17 17 17 17
16 18 15 11 11 10 16 14 11 10 10 10 11 11 12 11 11 10 11 12 13 14 15 16 15 15 16 16 17 17 17 17 17 17 17 18 17 17 18 17 17 18 17 17
15 17 19 11 12 14 12 11 11 11 10 9 13 12 13 13 13 13 13 13 14 15 16 15 15 15 16 17 17 16 17 17 17 17 16 17 18 18 18 18 18 18 17 16
14 14 11 11 11 10 10 11 11 11 11 11 13 14 14 14 15 15 15 15 15 16 16 16 15 15 17 18 17 18 17 17 17 17 18 18 18 18 18 18 18 18 17 16
12 11 11 10 11 11 11 11 12 12 12 13 14 15 16 16 16 16 16 16 16 16 16 17 16 16 17 17 16 17 17 18 18 18 18 18 17 17 18 18 17 17 17 17
12 11 11 11 11 11 12 12 12 13 13 14 14 15 15 16 16 16 16 16 16 17 18 18 17 17 17 17 17 18 18 18 18 18 18 18 17 17 17 17 16 16 16 15
13 10 11 11 11 11 12 12 13 13 14 14 14 16 16 16 16 16 17 17 17 17 17 18 17 18 18 17 17 18 18 18 18 18 18 17 18 18 16 15 14 14 14 14
9 10 11 11 11 11 12 13 13 14 14 15 15 15 16 17 17 16 17 17 17 18 18 18 18 18 18 17 17 18 18 18 17 18 18 18 18 18 18 17 15 15 15 14
10 10 11 11 11 12 12 12 13 14 14 15 15 15 16 16 16 17 17 17 18 18 19 18 18 18 18 17 17 17 17 16 18 18 18 18 18 18 18 18 19 18 16 15
11 11 10 11 12 13 13 13 14 15 15 16 15 16 16 16 17 18 18 18 18 19 19 18 18 19 18 18 18 18 17 17 18 18 18 17 18 18 18 18 19 19 18 16
12 12 12 12 13 13 13 13 14 15 16 16 16 16 17 17 18 19 19 18 19 20 19 18 19 19 18 18 18 18 17 15 16 18 18 18 18 18 18 19 19 18 18 18
14 14 14 14 14 13 13 13 14 15 16 16 17 17 18 18 19 19 20 19 19 19 19 19 19 18 18 18 18 18 18 18 17 19 19 19 19 18 19 19 19 18 18 17
12 12 11 11 12 14 14 14 15 15 16 16 17 17 18 18 19 20 21 20 19 20 20 19 18 18 18 18 18 18 18 19 19 19 19 19 18 19 19 19 19 18 17 16
13 13 12 13 13 14 14 15 15 16 16 17 17 19 19 20 20 21 20 20 20 20 20 18 16 17 18 16 18 19 19 20 20 20 20 18 19 19 19 19 18 18 17 16
14 14 13 14 13 14 15 15 15 16 17 18 18 19 20 20 20 20 20 21 20 19 18 18 19 18 18 17 18 19 20 20 20 20 20 19 20 19 19 18 18 18 17 16
14 14 14 14 15 15 15 15 16 17 17 17 18 19 19 20 20 20 20 20 19 18 18 17 18 18 18 19 19 20 20 20 20 21 21 21 20 20 20 19 19 17 17 17
14 14 15 15 15 16 15 15 16 17 18 18 19 19 20 20 20 20 19 19 18 16 19 19 18 16 18 18 20 20 20 21 21 21 21 21 21 21 21 19 19 18 17 17
14 15 15 15 16 17 17 17 17 18 18 19 19 19 19 19 19 19 20 18 18 17 19 18 15 16 17 21 20 21 21 21 21 21 21 21 21 21 20 19 18 17 18 18
14 14 15 16 16 17 19 19 18 19 19 19 19 19 19 19 19 19 18 16 15 17 18 17 16 17 19 21 21 21 21 21 22 22 21 19 21 20 19 19 19 19 19 19
15 15 15 16 17 18 19 19 19 19 19 20 20 20 19 19 19 20 19 18 16 19 20 17 17 18 21 22 21 21 22 22 22 21 21 22 20 20 20 19 19 19 18 18
15 16 16 16 18 18 18 18 20 20 20 21 21 21 21 20 19 21 21 20 21 20 22 22 21 21 21 21 21 21 21 21 21 22 20 20 20 20 20 20 20 20 20 20
17 16 18 18 18 18 19 19 19 20 20 20 22 22 22 22 21 21 21 22 22 22 23 23 23 21 21 21 22 21 22 22 21 20 20 21 21 21 20 20 20 20 20 20